TimeMDT,TemperatureF,Dew PointF,Humidity,Sea Level PressureIn,VisibilityMPH,Wind Direction,Wind SpeedMPH,Gust SpeedMPH,PrecipitationIn,Events,Conditions,WindDirDegrees,DateUTC
12:06 AM,24.8,15.8,69,30.27,10.0,SSW,12.7,-,N/A,,Clear,210,2013-10-20 06:06:00
12:26 AM,24.8,15.8,69,30.27,10.0,SSW,12.7,-,N/A,,Clear,210,2013-10-20 06:26:00
12:46 AM,24.8,15.8,69,30.27,10.0,SW,12.7,-,N/A,,Clear,220,2013-10-20 06:46:00
1:06 AM,26.6,15.8,64,30.27,10.0,SW,11.5,-,N/A,,Clear,220,2013-10-20 07:06:00
1:26 AM,26.6,14.0,59,30.26,10.0,WSW,9.2,-,N/A,,Clear,240,2013-10-20 07:26:00
1:46 AM,26.6,14.0,59,30.25,10.0,SSW,9.2,-,N/A,,Clear,210,2013-10-20 07:46:00
2:06 AM,26.6,14.0,59,30.24,10.0,SSW,12.7,-,N/A,,Clear,210,2013-10-20 08:06:00
2:26 AM,26.6,12.2,55,30.24,10.0,SSW,13.8,-,N/A,,Clear,210,2013-10-20 08:26:00
2:46 AM,26.6,10.4,51,30.24,10.0,SW,9.2,-,N/A,,Clear,220,2013-10-20 08:46:00
3:06 AM,26.6,8.6,47,30.24,10.0,SW,11.5,-,N/A,,Clear,220,2013-10-20 09:06:00
3:26 AM,26.6,8.6,47,30.24,10.0,SW,11.5,-,N/A,,Clear,230,2013-10-20 09:26:00
3:46 AM,28.4,8.6,43,30.22,10.0,SW,13.8,-,N/A,,Clear,220,2013-10-20 09:46:00
4:06 AM,28.4,5.0,37,30.22,10.0,SW,12.7,-,N/A,,Clear,230,2013-10-20 10:06:00
4:26 AM,28.4,3.2,34,30.22,10.0,SW,9.2,-,N/A,,Clear,230,2013-10-20 10:26:00
4:46 AM,28.4,5.0,37,30.22,10.0,WSW,11.5,-,N/A,,Clear,240,2013-10-20 10:46:00
5:06 AM,28.4,3.2,34,30.20,10.0,WSW,10.4,-,N/A,,Clear,240,2013-10-20 11:06:00
5:26 AM,26.6,12.2,55,30.20,10.0,SSW,12.7,-,N/A,,Clear,210,2013-10-20 11:26:00
5:46 AM,26.6,14.0,59,30.20,10.0,SW,11.5,-,N/A,,Clear,230,2013-10-20 11:46:00
6:06 AM,24.8,14.0,64,30.20,10.0,WSW,10.4,-,N/A,,Clear,240,2013-10-20 12:06:00
6:26 AM,24.8,15.8,69,30.20,10.0,SSW,8.1,-,N/A,,Clear,210,2013-10-20 12:26:00
6:46 AM,23.0,15.8,74,30.20,10.0,SW,8.1,-,N/A,,Clear,220,2013-10-20 12:46:00
7:06 AM,24.8,14.0,64,30.19,10.0,SW,8.1,-,N/A,,Clear,230,2013-10-20 13:06:00
7:26 AM,23.0,15.8,74,30.19,10.0,SW,10.4,-,N/A,,Clear,220,2013-10-20 13:26:00
7:46 AM,23.0,15.8,74,30.19,10.0,SSW,9.2,-,N/A,,Clear,210,2013-10-20 13:46:00
8:06 AM,24.8,15.8,69,30.19,10.0,SW,11.5,-,N/A,,Clear,220,2013-10-20 14:06:00
8:26 AM,26.6,14.0,59,30.19,10.0,SW,11.5,-,N/A,,Clear,220,2013-10-20 14:26:00
8:46 AM,28.4,14.0,55,30.19,10.0,SW,9.2,-,N/A,,Clear,220,2013-10-20 14:46:00
9:06 AM,28.4,14.0,55,30.19,10.0,SW,10.4,-,N/A,,Clear,220,2013-10-20 15:06:00
9:26 AM,30.2,14.0,51,30.20,10.0,SW,8.1,-,N/A,,Clear,220,2013-10-20 15:26:00
9:46 AM,32.0,14.0,48,30.21,10.0,SW,6.9,-,N/A,,Clear,220,2013-10-20 15:46:00
10:06 AM,32.0,14.0,48,30.21,10.0,SSW,6.9,-,N/A,,Clear,210,2013-10-20 16:06:00
10:26 AM,32.0,14.0,48,30.20,10.0,SSW,5.8,-,N/A,,Clear,210,2013-10-20 16:26:00
10:46 AM,32.0,15.8,51,30.20,10.0,SW,5.8,-,N/A,,Clear,220,2013-10-20 16:46:00
11:06 AM,32.0,15.8,51,30.19,10.0,SSW,6.9,-,N/A,,Clear,200,2013-10-20 17:06:00
11:26 AM,33.8,17.6,52,30.19,10.0,SSW,8.1,-,N/A,,Clear,210,2013-10-20 17:26:00
11:46 AM,32.0,14.0,48,30.19,10.0,SSW,11.5,17.3,N/A,,Clear,210,2013-10-20 17:46:00
12:06 PM,32.0,12.2,44,30.19,10.0,SSW,12.7,-,N/A,,Clear,200,2013-10-20 18:06:00
12:26 PM,33.8,12.2,41,30.19,10.0,SW,11.5,-,N/A,,Clear,220,2013-10-20 18:26:00
12:46 PM,33.8,14.0,44,30.18,10.0,SSW,10.4,23.0,N/A,,Clear,200,2013-10-20 18:46:00
1:06 PM,33.8,14.0,44,30.17,10.0,SSW,10.4,20.7,N/A,,Clear,200,2013-10-20 19:06:00
1:26 PM,33.8,17.6,52,30.17,10.0,SSW,9.2,19.6,N/A,,Clear,200,2013-10-20 19:26:00
1:46 PM,33.8,17.6,52,30.17,10.0,SW,11.5,18.4,N/A,,Clear,220,2013-10-20 19:46:00
2:06 PM,35.6,17.6,48,30.15,10.0,SSW,15.0,21.9,N/A,,Clear,210,2013-10-20 20:06:00
2:26 PM,35.6,12.2,38,30.15,10.0,SW,12.7,23.0,N/A,,Clear,230,2013-10-20 20:26:00
2:46 PM,35.6,12.2,38,30.14,10.0,SW,16.1,21.9,N/A,,Clear,220,2013-10-20 20:46:00
3:06 PM,33.8,14.0,44,30.15,10.0,SW,11.5,24.2,N/A,,Clear,220,2013-10-20 21:06:00
3:26 PM,33.8,15.8,48,30.15,10.0,WSW,12.7,18.4,N/A,,Clear,240,2013-10-20 21:26:00
3:46 PM,33.8,17.6,52,30.15,10.0,SSW,13.8,21.9,N/A,,Scattered Clouds,210,2013-10-20 21:46:00
4:06 PM,33.8,17.6,52,30.15,10.0,SSW,18.4,24.2,N/A,,Overcast,210,2013-10-20 22:06:00
4:26 PM,32.0,17.6,55,30.17,10.0,SSW,13.8,19.6,N/A,,Overcast,210,2013-10-20 22:26:00
4:46 PM,32.0,17.6,55,30.17,10.0,WSW,12.7,17.3,N/A,,Overcast,250,2013-10-20 22:46:00
5:06 PM,30.2,21.2,69,30.17,10.0,West,3.5,-,N/A,,Overcast,280,2013-10-20 23:06:00
5:26 PM,30.2,21.2,69,30.18,10.0,Calm,Calm,-,N/A,,Overcast,0,2013-10-20 23:26:00
5:46 PM,28.4,23.0,80,30.18,7.0,East,3.5,-,N/A,,Overcast,90,2013-10-20 23:46:00
6:06 PM,28.4,24.8,86,30.18,2.5,Calm,Calm,-,N/A,Snow,Light Snow,0,2013-10-21 00:06:00
6:26 PM,28.4,23.0,80,30.19,10.0,Calm,Calm,-,N/A,,Overcast,0,2013-10-21 00:26:00
6:46 PM,28.4,23.0,80,30.19,10.0,NNW,3.5,-,N/A,,Overcast,340,2013-10-21 00:46:00
7:06 PM,28.4,23.0,80,30.19,2.5,Calm,Calm,-,N/A,Snow,Light Snow,0,2013-10-21 01:06:00
7:26 PM,28.4,21.2,74,30.19,10.0,West,4.6,-,N/A,,Overcast,270,2013-10-21 01:26:00
7:46 PM,28.4,17.6,64,30.19,10.0,NW,3.5,-,N/A,,Overcast,310,2013-10-21 01:46:00
8:06 PM,28.4,17.6,64,30.19,10.0,WNW,4.6,-,N/A,,Overcast,300,2013-10-21 02:06:00
8:26 PM,28.4,17.6,64,30.20,10.0,NNW,3.5,-,N/A,,Overcast,340,2013-10-21 02:26:00
8:46 PM,28.4,17.6,64,30.19,10.0,NE,11.5,-,N/A,,Overcast,40,2013-10-21 02:46:00
9:06 PM,28.4,15.8,59,30.20,10.0,NE,11.5,16.1,N/A,,Overcast,40,2013-10-21 03:06:00
9:26 PM,28.4,17.6,64,30.19,10.0,NE,8.1,-,N/A,,Overcast,40,2013-10-21 03:26:00
9:46 PM,26.6,17.6,69,30.20,10.0,NE,9.2,-,N/A,,Overcast,40,2013-10-21 03:46:00
10:06 PM,26.6,14.0,59,30.20,10.0,NE,9.2,-,N/A,,Overcast,50,2013-10-21 04:06:00
10:26 PM,26.6,15.8,64,30.20,10.0,NE,11.5,-,N/A,,Overcast,50,2013-10-21 04:26:00
10:46 PM,26.6,14.0,59,30.21,10.0,NE,10.4,-,N/A,,Overcast,50,2013-10-21 04:46:00
11:06 PM,26.6,14.0,59,30.21,10.0,ENE,9.2,-,N/A,,Overcast,70,2013-10-21 05:06:00
11:26 PM,26.6,14.0,59,30.21,10.0,NE,10.4,-,N/A,,Overcast,50,2013-10-21 05:26:00
11:46 PM,26.6,14.0,59,30.20,10.0,NE,10.4,-,N/A,,Overcast,50,2013-10-21 05:46:00